Tracking 30743 objects as of 21-Jun-2025
HD Live streaming from Space Station
objects crossing your sky now

NOAA 16 DEB

Track NOAA 16 DEB now!
10-day predictions


NORAD ID: 41349
Int'l Code: 2000-055HS
Perigee: 717.1 km
Apogee: 764.9 km
Inclination: 99.0 °
Period: 99.5 minutes
Semi major axis: 7111 km
RCS: Unknown
Launch date: September 21, 2000
Source: United States (US)
Launch site: AIR FORCE WESTERN TEST RANGE (AFWTR)

Note: This is SATELLITE DEBRIS
Your satellite tracking list
Your tracking list is empty




NASA's NSSDC Master Catalog

Two Line Element Set (TLE):
1 41349U 00055HS  25170.32689609  .00005999  00000-0  16331-2 0  9997
2 41349  98.9852 352.7103 0033593 110.1826 250.2983 14.47497739490846
Source of the keplerian elements: AFSPC